Back to catalog

DELTA 1 DEB

AliveSSO
NORAD 12198·DEBRIS·🇺🇸 United States

Launched Mar 5, 1978 from Vandenberg Space Force Base

Loading…

Next Passes (next 24 hours)

TLE

FreshSource: Space-Track

Epoch: Sep 14, 2026, 06:11 UTC

1 12198U 78026AP  26257.25811777  .00000267  00000-0  18778-3 0  9993
2 12198  99.1462 174.5499 0117755  24.5233 336.1472 14.03388215323669

Track DELTA 1 DEB in real time with AllMySat

Download on the App Store